Weather Roundup
Issued by NWS

Home | Current Version | Previous Version | Graphics & Text | Print | Product List | Glossary Off
Versions: 1 2 3 4 5 6 7 8 9 10 11 12 13 14 15 16 17 18 19 20 21 22 23 24 25 26 27 28 29 30 31 32 33 34 35 36 37 38 39 40 41 42 43 44 45 46 47 48 49 50

000
NZUS93 KARX 250610
HRRWXR

CURRENT HOURLY OBSERVATIONS ACROSS
MUCH OF THE UPPER MISSISSIPPI VALLEY
NATIONAL WEATHER SERVICE LA CROSSE WI
100 AM CDT MON MAY 25 2015


...SOUTHEAST MINNESOTA...


CITY           SKY/WX    TMP DP  RH WIND       PRES   REMARKS
ROCHESTER      CLOUDY    59  58  96 SE9       29.77F FOG
ROCHESTER/MAYO CLOUDY    58  59 100 E7        29.76F
WINONA         RAIN      59  57  94 SE6       29.77F
AUSTIN         CLOUDY    61  59  94 SE7       29.74F FOG
ALBERT LEA     DRIZZLE   63  63 100 SE7       29.73F
DODGE CENTER   CLOUDY    61  59  94 SE10      29.75F FOG
PRESTON        CLOUDY    58  57  97 E3        29.77F FOG
OWATONNA       RAIN      61  57  88 SE9       29.74F
FARIBAULT      RAIN      61  59  94 E7        29.74F
$$

...ELSEWHERE IN MINNESOTA...


CITY           SKY/WX    TMP DP  RH WIND       PRES   REMARKS
MINNEAPOLIS    LGT RAIN  58  57  97 E9        29.75F
INTNL FALLS    CLOUDY    58  49  72 NW3       29.86F
DULUTH         LGT RAIN  58  56  93 E8        29.88F FOG
RED WING       HVY RAIN  57  57 100 E9        29.75F
REDWOOD FALLS  LGT RAIN  58  57  97 VRB3      29.73F FOG
MANKATO        CLOUDY    61  57  88 SE5       29.73F
WORTHINGTON    CLOUDY    59  55  88 CALM      29.75F VSB 3/4
FAIRMONT       CLOUDY    61  57  88 S6        29.72F
$$

...SOUTHWEST WISCONSIN...


CITY           SKY/WX    TMP DP  RH WIND       PRES   REMARKS
LA CROSSE      LGT RAIN  60  58  92 E5        29.77F FOG
PRAIRIE DU CHI CLOUDY    66  63  90 SE9       29.76F
BOSCOBEL       CLOUDY    61  59  93 N3        29.79F FOG
LONE ROCK      CLOUDY    61  59  93 E7        29.82F FOG
PLATTEVILLE    CLOUDY    64  63  98 SE7       29.80F
FORT MC COY    CLOUDY    58  57  95 E8        29.79F FOG
CAMP DOUGLAS   CLOUDY    57  57 100 SE10      29.80F FOG
VIROQUA        CLOUDY    59  59 100 SE13G18   29.79F VSB 1/2
WIS DELLS      CLOUDY    58  56  94 CALM      29.82F FOG
$$

...ELSEWHERE IN WISCONSIN...


CITY           SKY/WX    TMP DP  RH WIND       PRES   REMARKS
MILWAUKEE      CLOUDY    58  56  93 NW6       29.90F FOG
MADISON        LGT RAIN  63  61  93 S8        29.83F FOG
GREEN BAY      LGT RAIN  59  57  93 SE6       29.89F FOG
EAU CLAIRE     LGT RAIN  57  55  93 E8        29.79F
BLACK RVR FLS  DRIZZLE   57  57 100 E5        29.79F
MEDFORD        RAIN      54  54  99 E8        29.84F
WAUSAU         HVY RAIN  55  54  96 E8        29.84F FOG
WIS RAPIDS     LGT RAIN  57  54  89 SE7       29.85F
MARSHFIELD     CLOUDY    57  54  89 E10       29.84F
RICE LAKE      DRIZZLE   57  55  92 E8        29.83F
$$

...NORTHEAST IOWA...


CITY           SKY/WX    TMP DP  RH WIND       PRES   REMARKS
DECORAH        CLOUDY    63  63 100 SE7G13    29.75F FOG
MASON CITY     CLOUDY    63  62  97 SW6       29.76F
CHARLES CITY   CLOUDY    63  63 100 CALM      29.76F FOG
OELWEIN        CLOUDY    64  64 100 S12       29.78S
$$

...ELSEWHERE IN IOWA...


CITY           SKY/WX    TMP DP  RH WIND       PRES   REMARKS
DES MOINES     LGT RAIN  65  62  90 S7        29.77F
IOWA CITY      LGT RAIN  67  66  97 SE9       29.80F
FORT DODGE     CLOUDY    61  59  94 SW3       29.76F
$$

...NORTHERN ILLINOIS...


CITY           SKY/WX    TMP DP  RH WIND       PRES   REMARKS
CHICAGO-OHARE  MOCLDY    70  62  76 S12G20    29.89F
CHICAGO-MIDWAY CLOUDY    76  63  64 S16G24    29.90F
MOLINE         CLOUDY    68  64  87 SE7       29.81F
ROCKFORD       LGT RAIN  68  65  90 S15       29.88F FOG
PEORIA         LGT RAIN  70  66  87 SE8       29.86F
$$

NOTE: "FAIR" INDICATES FEW OR NO CLOUDS BELOW 12,000 FEET WITH NO
SIGNIFICANT WEATHER AND/OR OBSTRUCTIONS TO VISIBILITY. WIND
SPEEDS ARE IN MILES-PER-HOUR.



USA.gov is the U.S. government's official web portal to all federal, state and local government web resources and services.